Historyczne dane pomiarowe

Dodano dane terminowe – wersja testowa.

Dane z okresu 1951-2019

Wersja bazy: 1.34 [2019-03-16, lista zmian], aktualizacja planowana na 2019-04-15

Dane meteo z obszaru Polski uzyskane na podstawie danych udostępnionych przez Instytut Meteorologii i Gospodarki Wodnej – Państwowy Instytut Badawczy.

 

Wybierz Datę:    

       

TemperaturaWilgotnośćWiatrCiśnienieOpadyŚniegCzas trwania zjawisk
 Stacja t tx tn tng RH VA  wxwx mslp ppp RRR   cm mm wxwxwxwxwxwxwx
2019-06-30 24.9 32.7 15.4 14.7 48.6 14.8- 3.1--1015.9 990.7 0.0 0.0 0.0x- 14.8-------
2019-06-29 19.3 25.9 10.6 10.1 52.9 11.3- 3.3--1019.9 994.1 0.0 0.0 0.0x- 14.5-------
2019-06-28 17.7 23.0 12.9 12.8 60.3 11.7- 4.0--1019.0 993.2 0.0 0.0 0.0x- 13.4-------
2019-06-27 23.3 29.0 21.5 21.4 61.5 17.6- 5.0--1015.5 990.2 0.0 0.0 0.0x- 12.6-------
2019-06-26 25.9 32.7 18.7 18.1 66.4 21.7- 2.8--1021.4 996.2 0.0 0.0 0.0x- 14.2-------
2019-06-25 24.4 30.3 17.8 16.3 63.8 19.0- 2.6--1025.41000.0 0.0 0.0 0.0x- 14.6-------
2019-06-24 21.0 25.8 14.7 14.4 69.6 17.0- 2.5--1023.7 998.0 0.0 0.0 0.0x- 11.2-------
2019-06-23 20.6 26.0 16.0 15.8 62.8 15.0- 3.3--1019.7 994.1 0.0 0.0 0.0x- 10.8-------
2019-06-22 20.3 25.3 15.8 15.1 79.1 18.5- 2.9--1019.5 993.9 0.0 0.0 0.0x- 7.5-------
2019-06-21 19.8 27.1 17.7 16.8 90.4 20.7- 2.9--1014.4 988.8 6.4 6.2 0.2x- 6.6-------
2019-06-20 21.8 28.1 17.4 16.7 82.5 21.2- 2.0--1011.5 986.2 1.1 0.1 1.0x- 10.1-------
2019-06-19 21.8 27.7 18.6 17.5 75.5 19.4- 2.6--1014.1 988.7 0.4 0.4 0.0x- 7.8-------
2019-06-18 19.9 24.4 13.9 13.6 76.4 17.5- 2.0--1019.3 993.7 0.0 0.0 0.0x- 9.3-------
2019-06-17 18.0 20.8 16.5 16.4 80.1 16.4- 2.9--1020.4 994.6 0.1 0.1 0.0x- 4.0-------
2019-06-16 24.1 30.7 19.7 19.0 69.3 20.1- 3.3--1014.1 989.0 1.6 1.4 0.2x- 10.9-------
2019-06-15 26.5 32.9 19.6 17.9 63.3 20.8- 2.1--1014.5 989.5 0.0 0.0 0.0x- 14.1-------
2019-06-14 24.8 29.6 19.1 18.3 69.1 21.3- 2.3--1017.4 992.2 0.0 0.0 0.0x- 10.6-------
2019-06-13 25.7 31.5 18.1 16.5 60.5 19.4- 3.0--1014.0 989.0 0.0 0.0 0.0x- 14.7-------
2019-06-12 25.4 31.4 18.2 16.8 61.0 19.1- 3.1--1013.9 988.8 0.0 0.0 0.0x- 14.6-------
2019-06-11 25.1 30.7 18.9 17.3 62.0 19.0- 2.9--1014.9 989.8 0.0 0.0 0.0x- 14.2-------
2019-06-10 23.6 29.2 16.4 15.5 64.1 18.4- 3.0--1018.6 993.2 0.0 0.0 0.0x- 13.4-------
2019-06-09 20.2 25.0 15.3 15.0 68.9 16.0- 2.9--1024.8 999.1 0.0 0.0 0.0x- 12.9-------
2019-06-08 21.6--- 78.4------- 2.3 0.0 2.3x- 12.8-------
2019-06-07 20.1 26.0 14.7 13.9 79.6 18.4- 2.1--1015.0 989.4 1.2 1.2 0.0x- 11.9-------
2019-06-06 20.9 26.0 15.7 14.8 72.1 17.4- 2.3--1013.1 987.7 0.0 0.0 0.0x- 11.7-------
2019-06-05 21.4 26.2 16.4 15.6 67.4 16.5- 3.3--1012.8 987.4 0.0 0.0 0.0x- 11.7-------
2019-06-04 21.2--- 69.1 17.1- 3.1--1015.1 989.7 1.9 1.9 0.0x- 12.9-------
2019-06-03 20.8 26.2 13.3 12.4 64.4 14.8- 2.5--1018.2 992.7 0.0 0.0 0.0x- 14.9-------
2019-06-02 19.4 26.1 13.2 12.5 68.5 14.7- 2.1--1019.2 993.5 0.0 0.0 0.0x- 12.4-------
2019-06-01 18.5 24.3 11.1 8.9 68.6 14.5- 2.5--1020.9 995.1 0.0 0.0 0.0x- 10.8-------
2019-05-31 16.8 22.0 11.9 11.8 54.4 10.1- 2.3--1022.9 996.8 0.0 0.0 0.0x- 11.4-------
2019-05-30 13.4 16.7 10.1 10.3 77.9 12.0- 2.8--1022.6 996.3 0.0 0.0 0.0x- 0.8-------
2019-05-29 13.3 19.9 11.4 11.3 91.1 14.0- 3.6--1013.4 987.4 0.0 0.0 0.0x- 0.4-------
2019-05-28 19.5 23.6 15.8 15.7 75.5 16.8- 3.9--1010.0 984.6 0.0 0.0 0.0x- 8.4-------
2019-05-27 19.0 25.6 13.4 12.7 75.1 16.1- 2.9--1013.4 987.8 1.2 0.0 1.2x- 9.8-------
2019-05-26 17.1 22.7 11.6 9.9 68.8 13.0- 2.9--1013.5 987.8 0.0 0.0 0.0x- 11.4-------
2019-05-25 17.3 22.4 13.4 13.4 65.8 12.5- 2.9--1011.9 986.2 0.0 0.0 0.0x- 9.4-------
2019-05-24 14.2 16.1 12.9 12.9 92.6 14.9- 2.9--1012.6 986.6 1.8 1.8 0.0x---------
2019-05-23 14.6--- 94.0 15.5- 2.5--1010.4 984.5 33.3 11.3 22.0x---------
2019-05-22 13.9 17.7 12.4 12.3 93.6 14.9- 3.1--1004.0 978.3 1.6 0.5 1.1x- 3.5-------
2019-05-21 13.9 16.4 12.3 12.0 95.3 15.1- 3.4--1003.6 977.8 21.0 16.1 4.9x- 0.3-------
2019-05-20 17.8 22.8 16.1 15.4 86.1 17.3- 3.1--1005.8 980.3 0.1 0.1 0.0x- 3.2-------
2019-05-19 17.7 22.6 14.7 14.1 83.3 16.7- 2.5--1008.1 982.5 1.3 1.3 0.0x- 5.4-------
2019-05-18 18.5 23.9 13.7 12.3 75.5 15.7- 2.4--1010.4 984.9 0.4 0.0 0.4x- 9.2-------
2019-05-17 16.6 21.4 13.1 12.0 81.1 15.0- 2.4--1012.1 986.3 0.2 0.1 0.1x- 6.5-------
2019-05-16 13.4 18.3 10.0 10.0 87.8 13.3- 2.0--1014.0 988.0 0.7 0.6 0.1x- 5.2-------
2019-05-15 10.1 12.0 6.6 6.7 97.8 12.1- 3.6--1016.5 990.1 1.6 1.5 0.1x- 0.0-------
2019-05-14 6.4 8.0 4.7 4.5 94.6 9.1- 4.4--1024.9 997.9 5.1 3.6 1.5x- 0.0-------
2019-05-13 8.2 14.6 7.4 7.2 85.9 9.3- 4.6--1028.41001.4 3.1 1.2 1.9x- 0.0-------
2019-05-12 15.2 21.6 8.5 6.7 69.4 11.4- 3.1--1019.0 992.9 0.0 0.0 0.0x- 8.6-------
2019-05-11 14.3 19.5 9.7 8.8 68.8 10.8- 2.3--1012.4 986.4 0.0 0.0 0.0x- 6.4-------
2019-05-10 11.9 17.9 8.1 7.9 81.4 11.1- 1.6--1007.9 981.8 0.1 0.0 0.1x- 4.2-------
2019-05-09 10.6 15.6 4.8 3.7 62.6 7.9- 4.0--1007.6 981.4 1.0 0.0 1.0x- 5.9-------
2019-05-08 9.2 14.8 2.4 0.9 55.5 6.2- 2.4--1015.9 989.4 0.0 0.0 0.0x- 12.0-------
2019-05-07 9.3 13.8 6.4 6.1 54.9 6.3- 4.1--1014.6 988.1 0.0 0.0 0.0x- 5.6-------
2019-05-06 7.8 10.0 5.3 4.8 56.5------- 0.0 0.0 0.0x---------
2019-05-05 6.8--- 86.3------- 0.0 0.0 0.0x---------
2019-05-04 9.5 15.1 4.3 3.3 74.5 8.5- 2.8--1007.2 981.0 0.0 0.0 0.0x- 10.5-------
2019-05-03 9.7 14.7 7.7 4.2 81.1 9.7- 2.4--1006.0 979.8 0.8 0.8 0.0x- 0.6-------
2019-05-02 13.3 18.8 7.7 6.9 64.0 9.5- 4.6--1003.7 977.8 0.0 0.0 0.0x- 10.4-------
100.9 ms

 

Źródłem pochodzenia danych jest Instytut Meteorologii i Gospodarki Wodnej – Państwowy Instytut Badawczy. Dane Instytutu Meteorologii i Gospodarki Wodnej – Państwowego Instytutu Badawczego zostały przetworzone.

Dane źródłowe można odnaleźć na stronie https://dane.imgw.pl